Weather History for LIMH - April, 2013

Change the Weather History Date:

Wednesday, April 10, 2013

  Actual Average Record
Temperature  
Mean Temperature 15 °F -  
Max Temperature 21 °F 24 °F 32 °F (2007)
Min Temperature 9 °F 13 °F 0 °F (2005)
Degree Days  
Heating Degree Days 50    
Moisture  
Dew Point 5 °F    
Average Humidity 62    
Maximum Humidity 93    
Minimum Humidity 25    
Precipitation  
Precipitation 0.00 in - - ()
Sea Level Pressure  
Sea Level Pressure 29.78 in    
Wind  
Wind Speed 13 mph ()    
Max Wind Speed 37 mph    
Max Gust Speed -    
Visibility 4.9 miles    
Events Fog , Snow    
Averages and records for this station are not official NWS values.
T = Trace of Precipitation, MM = Missing Value Source: Averaged Metar Reports

Daily Weather History Graph

Daily Weather History Graph

Search for Another Location

Airport or City:

Trip Planner

Search our weather history database for the weather conditions in past years. The results will help you decide how hot, cold, wet, or windy it might be!

Date:

Astronomy

Apr. 10, 2013 Rise Set
Actual Time 6:52 AM CEST 8:09 PM CEST
Civil Twilight 6:21 AM CEST 8:40 PM CEST
Nautical Twilight 5:44 AM CEST 9:17 PM CEST
Astronomical Twilight 5:04 AM CEST 9:57 PM CEST
Moon 6:38 AM CEST (4/10) 8:31 PM CEST (4/10)
Length of Visible Light 14h 19m
Length of Day
13h 17m
New Moon, 0% of the Moon is Illuminated
Apr 10
New Moon
Apr 18
First Quarter
Apr 25
Full
May 2
Last Quarter
May 10
New

Hourly Weather History & Observations

Time (CEST) Temp. Windchill Dew Point Humidity Pressure Visibility Wind Dir Wind Speed Gust Speed Precip Events Conditions
12:55 AM 10.4 °F -4.1 °F 6.8 °F 85% 29.65 in 6.2 mi West 11.5 mph - N/A   Partly Cloudy
1:55 AM 10.4 °F 2.2 °F 6.8 °F 85% 29.65 in 6.2 mi West 4.6 mph - N/A   Partly Cloudy
2:00 AM 10 °F - 6 °F 79%  in 6 mi West 4.6 mph - -   Partly Cloudy
2:55 AM 10.4 °F -7.2 °F 5.0 °F 79% 29.65 in 6.2 mi WNW 17.3 mph - N/A   Partly Cloudy
3:55 AM 10.4 °F -7.2 °F 5.0 °F 79% 29.68 in 6.2 mi WNW 17.3 mph - N/A   Partly Cloudy
4:55 AM 10.4 °F -6.6 °F 3.2 °F 73% 29.68 in - WNW 16.1 mph - N/A   Clear
5:00 AM 10 °F - 3 °F 62%  in 6 mi WNW 16.1 mph - -  
5:55 AM 10.4 °F -9.1 °F 3.2 °F 73% 29.71 in 6.2 mi West 21.9 mph - N/A   Partly Cloudy
6:55 AM 10.4 °F -8.2 °F 3.2 °F 73% 29.71 in 6.2 mi West 19.6 mph - N/A   Partly Cloudy
7:55 AM 10.4 °F -8.6 °F 1.4 °F 67% 29.71 in 6.2 mi West 20.7 mph - N/A   Partly Cloudy
8:00 AM 11 °F - 1 °F 52%  in 12 mi West 20.7 mph - -   Scattered Clouds
8:55 AM 14.0 °F -6.8 °F -4.0 °F 45% 29.74 in - WNW 29.9 mph - N/A   Clear
9:55 AM 15.8 °F -6.1 °F -0.4 °F 49% 29.71 in 6.2 mi West 36.8 mph - N/A   Partly Cloudy
10:55 AM 17.6 °F -1.0 °F -0.4 °F 45% 29.77 in 6.2 mi West 26.5 mph - N/A   Partly Cloudy
11:55 AM 17.6 °F 0.9 °F -0.4 °F 45% 29.77 in 6.2 mi West 20.7 mph - N/A   Partly Cloudy
12:55 PM 17.6 °F 2.2 °F -2.2 °F 42% 29.80 in - West 17.3 mph - N/A   Clear
1:55 PM 17.6 °F 2.7 °F -2.2 °F 42% 29.83 in 6.2 mi West 16.1 mph - N/A   Partly Cloudy
2:00 PM 18 °F - -3 °F 25%  in 31 mi West 16.1 mph - -   Scattered Clouds
2:55 PM 17.6 °F 7.3 °F -4.0 °F 38% 29.86 in 6.2 mi West 8.1 mph - N/A   Partly Cloudy
3:55 PM 19.4 °F 10.4 °F -0.4 °F 42% 29.86 in 6.2 mi West 6.9 mph - N/A   Partly Cloudy
4:55 PM 21.2 °F 14.9 °F 6.8 °F 54% 29.86 in 6.2 mi South 4.6 mph - N/A   Scattered Clouds
5:00 PM 22 °F - 7 °F 38%  in 31 mi South 4.6 mph - -   Partly Cloudy
5:55 PM 21.2 °F 10.9 °F 5.0 °F 50% 29.86 in 6.2 mi SW 9.2 mph - N/A   Scattered Clouds
6:55 PM 21.2 °F 12.6 °F 8.6 °F 58% 29.86 in 6.2 mi West 6.9 mph - N/A   Mostly Cloudy
7:55 PM 19.4 °F 10.4 °F 10.4 °F 68% 29.86 in 0.5 mi South 6.9 mph - N/A Fog , Snow Light Snow
8:00 PM 20 °F - 10 °F 53%  in 0 mi South 6.9 mph - - Snow Light Snow
8:55 PM 19.4 °F 8.6 °F 14.0 °F 80% 29.89 in 0.5 mi WNW 9.2 mph - N/A Fog , Snow Light Snow
9:55 PM 19.4 °F 9.5 °F 15.8 °F 86% 29.89 in 0.9 mi NW 8.1 mph - N/A   Scattered Clouds
10:55 PM 19.4 °F 6.6 °F 15.8 °F 86% 29.92 in 0.9 mi WNW 12.7 mph - N/A   Scattered Clouds
11:00 PM 19 °F - 16 °F 84%  in 1 mi WNW 12.7 mph - -   Mist
11:55 PM 19.4 °F 6.0 °F 17.6 °F 93% 29.92 in 0.9 mi WNW 13.8 mph - N/A   Scattered Clouds